GW0515 Weather Reports


time (UTC)temp
C
wind
direction
speed
KPH
gust
KPH
rain 1hr
cm
rain 24hr
cm
rain mn
cm
humidity
%
barometer
mb
20260506103355 14 40 11.3 22.5 0.00 0.00 0.00 60 1010.0
20260506102851 14 0 12.9 24.1 0.00 0.00 0.00 60 1010.1
20260506102350 13 47 12.9 24.1 0.00 0.00 0.00 62 1010.1
20260506102123 13 28 12.9 22.5 0.00 0.00 0.00 62 1010.1
20260506101351 13 26 11.3 20.9 0.00 0.00 0.00 61 1010.3
20260506100848 13 28 11.3 17.7 0.00 0.00 0.00 62 1010.3
20260506100348 14 19 12.9 22.5 0.00 0.00 0.00 61 1010.3
20260506095847 14 46 11.3 22.5 0.00 0.00 0.00 62 1010.2
20260506095342 14 0 9.7 22.5 0.00 0.00 0.00 64 1010.2
20260506094840 13 5 12.9 22.5 0.00 0.00 0.00 64 1010.2
20260506093839 13 49 14.5 24.1 0.00 0.00 0.00 63 1010.4
20260506093341 13 36 12.9 24.1 0.00 0.00 0.00 64 1010.4
20260506092839 13 35 12.9 24.1 0.00 0.00 0.00 64 1010.4
20260506092340 13 26 12.9 20.9 0.00 0.00 0.00 65 1010.4
20260506091840 13 43 14.5 20.9 0.00 0.00 0.00 64 1010.4
20260506091339 12 51 12.9 20.9 0.00 0.00 0.00 64 1010.4
20260506090839 12 15 11.3 25.7 0.00 0.00 0.00 65 1010.4
20260506090339 13 21 11.3 25.7 0.00 0.00 0.00 64 1010.4
20260506085840 13 42 11.3 19.3 0.00 0.00 0.00 65 1010.4
20260506085339 13 23 12.9 19.3 0.00 0.00 0.00 64 1010.4
20260506084839 13 58 12.9 19.3 0.00 0.00 0.00 66 1010.4
20260506084340 13 34 12.9 20.9 0.00 0.00 0.00 67 1010.4
20260506083838 12 49 12.9 20.9 0.00 0.00 0.00 68 1010.4
20260506083337 12 15 11.3 19.3 0.00 0.00 0.00 68 1010.4
20260506083112 12 50 12.9 22.5 0.00 0.00 0.00 68 1010.4
20260506082337 12 17 12.9 22.5 0.00 0.00 0.00 67 1010.4
20260506082118 12 58 12.9 20.9 0.00 0.00 0.00 68 1010.4
20260506081336 12 44 12.9 20.9 0.00 0.00 0.00 69 1010.4
20260506080835 12 46 14.5 22.5 0.00 0.00 0.00 69 1010.4
20260506080336 12 38 14.5 22.5 0.00 0.00 0.00 69 1010.4
20260506073331 11 63 14.5 24.1 0.00 0.00 0.00 71 1010.4
20260506072833 11 60 14.5 22.5 0.00 0.00 0.00 71 1010.3
20260506072331 11 40 12.9 25.7 0.00 0.00 0.00 74 1010.3
20260506071831 11 56 12.9 25.7 0.00 0.00 0.00 73 1010.3
20260506071331 11 66 16.1 25.7 0.00 0.00 0.00 74 1010.3
20260506070830 10 78 16.1 25.7 0.00 0.00 0.00 75 1010.3
20260506070329 10 54 14.5 24.1 0.00 0.00 0.00 75 1010.3
20260506062331 8 67 12.9 19.3 0.00 0.00 0.00 78 1010.3
20260506061827 8 38 12.9 19.3 0.00 0.00 0.00 79 1010.3
20260506061316 8 34 11.3 20.9 0.00 0.00 0.00 79 1010.4
20260506060815 8 50 11.3 20.9 0.00 0.00 0.00 80 1010.4
20260506060309 7 51 11.3 17.7 0.00 0.00 0.00 80 1010.4
20260506050806 5 40 11.3 17.7 0.00 0.00 0.00 84 1010.4
20260506044245 4 42 11.3 17.7 0.00 0.00 0.00 86 1010.4
20260506043745 4 40 11.3 17.7 0.00 0.00 0.00 86 1010.4
20260506043245 3 42 11.3 17.7 0.00 0.00 0.00 86 1010.4
20260506043015 3 42 11.3 16.1 0.00 0.00 0.00 87 1010.4
20260506042244 3 38 11.3 16.1 0.00 0.00 0.00 87 1010.4
20260506042014 3 38 11.3 17.7 0.00 0.00 0.00 87 1010.4
20260506041246 3 39 11.3 17.7 0.00 0.00 0.00 87 1010.4
20260506040744 3 44 12.9 19.3 0.00 0.00 0.00 87 1010.4
20260506040245 3 53 12.9 19.3 0.00 0.00 0.00 87 1010.4
20260506040022 3 42 11.3 19.3 0.00 0.00 0.00 88 1010.4
20260506035244 3 40 11.3 16.1 0.00 0.00 0.00 88 1010.4
20260506034746 3 42 11.3 16.1 0.00 0.00 0.00 88 1010.4
20260506034238 3 46 12.9 16.1 0.00 0.00 0.00 88 1010.4
20260506033731 3 27 11.3 16.1 0.00 0.00 0.00 88 1010.4
20260506033226 3 40 11.3 16.1 0.00 0.00 0.00 87 1010.4
20260506032726 3 41 11.3 16.1 0.00 0.00 0.00 87 1010.5
20260506032227 3 19 11.3 16.1 0.00 0.00 0.00 87 1010.5
20260506031727 3 25 11.3 16.1 0.00 0.00 0.00 87 1010.5
20260506031226 3 12 11.3 16.1 0.00 0.00 0.00 87 1010.6
20260506030948 3 34 11.3 16.1 0.00 0.00 0.00 87 1010.6
20260506030227 3 36 11.3 17.7 0.00 0.00 0.00 87 1010.6
20260506025726 3 59 11.3 17.7 0.00 0.00 0.00 87 1010.6
20260506025226 3 32 12.9 19.3 0.00 0.00 0.00 87 1010.6
20260506024726 3 22 12.9 19.3 0.00 0.00 0.00 88 1010.6
20260506024226 3 39 12.9 17.7 0.00 0.00 0.00 88 1010.7
20260506023726 3 32 12.9 17.7 0.00 0.00 0.00 87 1010.7
20260506023226 3 46 12.9 19.3 0.00 0.00 0.00 88 1010.7
20260506022726 3 24 12.9 19.3 0.00 0.00 0.00 87 1010.7
20260506022227 3 28 11.3 19.3 0.00 0.00 0.00 87 1010.7
20260506021727 3 34 11.3 17.7 0.00 0.00 0.00 87 1010.7
20260506021227 4 34 12.9 17.7 0.00 0.00 0.00 87 1010.9
20260506020726 4 32 11.3 17.7 0.00 0.00 0.00 87 1010.9
20260506020227 4 15 11.3 17.7 0.00 0.00 0.00 87 1010.9
20260506015727 4 14 11.3 17.7 0.00 0.00 0.00 87 1010.9
20260506015227 4 29 11.3 17.7 0.00 0.00 0.00 87 1010.9
20260506014959 4 19 9.7 17.7 0.00 0.00 0.00 87 1010.9
20260506014228 4 20 9.7 17.7 0.00 0.00 0.00 87 1010.9
20260506013723 4 28 9.7 17.7 0.00 0.00 0.00 87 1010.9
20260506013224 4 355 9.7 17.7 0.00 0.00 0.00 87 1010.9
20260506012724 5 55 9.7 16.1 0.00 0.00 0.00 87 1010.9
20260506012224 5 22 9.7 17.7 0.00 0.00 0.00 87 1010.9
20260506011724 5 30 9.7 17.7 0.00 0.00 0.00 86 1010.9
20260506011227 5 21 9.7 16.1 0.00 0.00 0.00 86 1010.9
20260506010958 5 355 9.7 16.1 0.00 0.00 0.00 86 1010.9
20260506010224 5 23 9.7 16.1 0.00 0.00 0.00 86 1010.9
20260506005724 5 26 9.7 16.1 0.00 0.00 0.00 86 1010.9
20260506005224 5 36 9.7 16.1 0.00 0.00 0.00 86 1010.9
20260506004724 5 36 9.7 17.7 0.00 0.00 0.00 86 1010.9
20260506004225 5 13 9.7 17.7 0.00 0.00 0.00 85 1010.7
20260506003724 5 29 9.7 16.1 0.00 0.00 0.00 85 1010.7
20260506003223 5 22 11.3 16.1 0.00 0.00 0.00 85 1010.7
20260506002722 5 38 9.7 16.1 0.00 0.00 0.00 84 1010.5
20260506002222 5 11 8.0 16.1 0.00 0.00 0.00 84 1010.5
20260506001721 6 20 8.0 16.1 0.00 0.00 0.00 83 1010.5
20260506001223 6 22 9.7 16.1 0.00 0.00 0.00 83 1010.6
20260506000956 6 36 9.7 16.1 0.00 0.00 0.00 83 1010.6
20260506000219 6 39 11.3 16.1 0.00 0.00 0.00 82 1010.6
20260505235707 6 34 11.3 17.7 0.00 0.00 0.00 82 1010.7
20260505235207 6 26 11.3 17.7 0.00 0.00 0.00 82 1010.7
20260505234706 6 15 9.7 16.1 0.00 0.00 0.00 82 1010.7
20260505234206 6 22 9.7 16.1 0.00 0.00 0.00 82 1010.7
20260505233705 6 0 9.7 17.7 0.00 0.00 0.00 82 1010.7
20260505233206 6 351 9.7 17.7 0.00 0.00 0.00 82 1010.7
20260505232702 6 13 8.0 14.5 0.00 0.00 0.00 81 1010.7
20260505232203 7 17 8.0 12.9 0.00 0.00 0.00 81 1010.7
20260505231703 7 0 8.0 12.9 0.00 0.00 0.00 81 1010.7
20260505231203 7 24 8.0 14.5 0.00 0.00 0.00 81 1010.7
20260505230704 7 30 8.0 14.5 0.00 0.00 0.00 81 1010.7
20260505230201 7 38 8.0 12.9 0.00 0.00 0.00 81 1010.7
20260505225701 7 15 8.0 14.5 0.00 0.00 0.00 81 1010.7
20260505225201 7 21 9.7 14.5 0.00 0.00 0.00 81 1010.7
20260505224701 7 32 8.0 14.5 0.00 0.00 0.00 81 1010.7
20260505224202 7 26 8.0 12.9 0.00 0.00 0.00 81 1010.9
20260505223702 7 11 8.0 14.5 0.00 0.00 0.00 80 1010.9
20260505223201 7 31 9.7 14.5 0.00 0.00 0.00 80 1010.9
20260505222940 7 28 8.0 14.5 0.00 0.00 0.00 80 1010.8
20260505222202 7 24 8.0 14.5 0.00 0.00 0.00 80 1010.8
20260505221701 7 31 9.7 14.5 0.00 0.00 0.00 80 1010.8
20260505221201 7 339 9.7 14.5 0.00 0.00 0.00 80 1010.9
20260505220702 7 17 9.7 16.1 0.00 0.00 0.00 80 1010.9
20260505220201 7 20 11.3 16.1 0.00 0.00 0.00 81 1010.9
20260505215710 7 19 11.3 16.1 0.00 0.00 0.00 81 1010.9
20260505214708 7 355 12.9 19.3 0.00 0.00 0.00 81 1010.9
20260505214206 8 348 12.9 19.3 0.00 0.00 0.00 81 1010.9
20260505213638 8 355 12.9 17.7 0.00 0.00 0.00 81 1010.9
20260505213138 8 0 11.3 17.7 0.00 0.00 0.00 81 1010.9
20260505212639 8 0 12.9 17.7 0.00 0.00 0.00 81 1011.0
20260505212151 8 347 12.9 19.3 0.00 0.00 0.00 81 1011.0
20260505211647 8 355 12.9 19.3 0.00 0.00 0.00 81 1011.0
20260505211147 8 355 12.9 19.3 0.00 0.00 0.00 80 1011.0
20260505210920 8 5 12.9 19.3 0.00 0.00 0.00 80 1011.0
20260505210140 8 355 12.9 17.7 0.00 0.00 0.00 79 1011.0
20260505205639 8 355 12.9 19.3 0.00 0.00 0.00 79 1011.1
20260505205139 8 5 12.9 20.9 0.00 0.00 0.00 79 1011.1
20260505204635 9 9 12.9 20.9 0.00 0.00 0.00 78 1011.1
20260505204145 9 344 14.5 20.9 0.00 0.00 0.00 78 1011.0
20260505203632 9 355 16.1 22.5 0.00 0.00 0.00 78 1011.0
20260505203133 9 350 14.5 22.5 0.00 0.00 0.00 78 1011.0
20260505202630 9 0 16.1 24.1 0.00 0.00 0.00 77 1011.0
20260505202129 10 0 16.1 24.1 0.00 0.00 0.00 77 1011.0
20260505201631 10 0 16.1 22.5 0.00 0.00 0.00 77 1011.0
20260505201129 10 18 16.1 24.1 0.00 0.00 0.00 76 1010.9
20260505200630 10 339 17.7 24.1 0.00 0.00 0.00 76 1010.9
20260505200131 10 12 16.1 24.1 0.00 0.00 0.00 76 1010.9
20260505195857 10 11 16.1 22.5 0.00 0.00 0.00 75 1010.9
20260505195130 10 5 16.1 24.1 0.00 0.00 0.00 74 1010.9
20260505194630 10 10 17.7 24.1 0.00 0.00 0.00 74 1010.9
20260505194129 10 350 17.7 24.1 0.00 0.00 0.00 73 1010.9
20260505193630 10 5 16.1 24.1 0.00 0.00 0.00 73 1010.9
20260505193130 10 0 16.1 22.5 0.00 0.00 0.00 74 1010.9
20260505192630 10 0 16.1 22.5 0.00 0.00 0.00 74 1010.6
20260505192132 10 355 16.1 24.1 0.00 0.00 0.00 74 1010.6
20260505191632 10 355 16.1 24.1 0.00 0.00 0.00 73 1010.6
20260505191131 10 0 14.5 20.9 0.00 0.00 0.00 73 1010.5
20260505190631 10 349 16.1 25.7 0.00 0.00 0.00 73 1010.5
20260505190132 10 355 16.1 25.7 0.00 0.00 0.00 73 1010.5
20260505185633 10 351 17.7 25.7 0.00 0.00 0.00 74 1010.4
20260505185132 11 355 17.7 25.7 0.00 0.00 0.00 73 1010.4
20260505184631 11 18 14.5 20.9 0.00 0.00 0.00 73 1010.4
20260505184131 11 346 14.5 25.7 0.00 0.00 0.00 72 1010.4
20260505183631 11 350 16.1 25.7 0.00 0.00 0.00 72 1010.4
20260505183133 11 342 16.1 25.7 0.00 0.00 0.00 72 1010.4
20260505182631 11 347 16.1 25.7 0.00 0.00 0.00 71 1010.4
20260505182131 11 337 16.1 24.1 0.00 0.00 0.00 70 1010.4
20260505181631 12 344 17.7 27.4 0.00 0.00 0.00 70 1010.4
20260505181400 12 339 16.1 27.4 0.00 0.00 0.00 70 1010.4
20260505180631 12 350 16.1 25.7 0.00 0.00 0.00 70 1010.4
20260505180132 12 331 17.7 25.7 0.00 0.00 0.00 69 1010.4
20260505175632 12 355 16.1 24.1 0.00 0.00 0.00 69 1010.4
20260505175132 12 334 16.1 24.1 0.00 0.00 0.00 70 1010.4
20260505174631 12 346 17.7 30.6 0.00 0.00 0.00 71 1010.4
20260505174131 12 329 17.7 30.6 0.00 0.00 0.00 71 1010.4
20260505173634 12 342 19.3 30.6 0.00 0.00 0.00 70 1010.4
20260505173131 12 355 16.1 30.6 0.00 0.00 0.00 70 1010.4
20260505172632 13 350 17.7 27.4 0.00 0.00 0.00 69 1010.4
20260505172131 13 341 19.3 33.8 0.00 0.00 0.00 69 1010.4
20260505171631 13 284 19.3 33.8 0.00 0.00 0.00 68 1010.4
20260505171131 13 336 17.7 29.0 0.00 0.00 0.00 69 1010.4
20260505170632 13 299 17.7 27.4 0.00 0.00 0.00 69 1010.4
20260505170129 13 355 17.7 27.4 0.00 0.00 0.00 69 1010.4
20260505165630 13 331 17.7 30.6 0.00 0.00 0.00 69 1010.5
20260505165130 13 332 20.9 33.8 0.00 0.00 0.00 70 1010.5
20260505164630 13 349 19.3 33.8 0.00 0.00 0.00 68 1010.5
20260505163629 13 336 17.7 30.6 0.00 0.00 0.00 68 1010.4
20260505163129 13 329 19.3 30.6 0.00 0.00 0.00 68 1010.4
20260505162852 13 306 17.7 29.0 0.00 0.00 0.00 67 1010.4
20260505162129 13 326 16.1 29.0 0.00 0.00 0.00 67 1010.4
20260505161629 13 339 16.1 29.0 0.00 0.00 0.00 67 1010.4
20260505161129 13 331 17.7 27.4 0.00 0.00 0.00 67 1010.5
20260505160630 13 339 17.7 29.0 0.00 0.00 0.00 67 1010.5
20260505160129 13 342 17.7 30.6 0.00 0.00 0.00 66 1010.5
20260505153130 14 339 19.3 32.2 0.00 0.00 0.00 65 1010.7
20260505152628 14 328 17.7 32.2 0.00 0.00 0.00 66 1010.9
20260505152129 14 315 17.7 30.6 0.00 0.00 0.00 65 1010.9
20260505151628 14 16 17.7 32.2 0.00 0.00 0.00 65 1010.9
20260505151129 14 323 17.7 32.2 0.00 0.00 0.00 66 1010.9
20260505150629 14 313 17.7 30.6 0.00 0.00 0.00 67 1010.9
20260505150129 14 325 17.7 29.0 0.00 0.00 0.00 67 1010.9
20260505140115 14 323 16.1 27.4 0.00 0.00 0.00 70 1010.9
20260505124603 12 302 19.3 29.0 0.00 0.00 0.00 76 1011.3
20260505124102 12 306 17.7 29.0 0.00 0.00 0.00 75 1011.4
20260505123603 13 290 17.7 29.0 0.00 0.00 0.00 74 1011.4
20260505123102 13 302 19.3 30.6 0.00 0.00 0.00 74 1011.4
20260505122602 12 279 20.9 30.6 0.00 0.00 0.00 77 1011.4
20260505122354 12 281 17.7 30.6 0.00 0.00 0.00 75 1011.4
20260505121602 13 270 16.1 25.7 0.00 0.00 0.00 76 1011.4
20260505121102 13 288 16.1 29.0 0.00 0.00 0.00 73 1011.4
20260505120836 13 286 17.7 29.0 0.00 0.00 0.00 75 1011.4
20260505115602 13 281 17.7 25.7 0.00 0.00 0.00 74 1011.4
20260505115053 13 286 16.1 24.1 0.00 0.00 0.00 74 1011.4
20260505114549 13 298 14.5 24.1 0.00 0.00 0.00 75 1011.4
20260505114050 12 282 14.5 20.9 0.00 0.00 0.00 75 1011.4
20260505113046 12 277 14.5 24.1 0.00 0.00 0.00 72 1011.4
20260505112547 13 332 14.5 24.1 0.00 0.00 0.00 69 1011.5
20260505112046 13 298 12.9 24.1 0.00 0.00 0.00 71 1011.5
20260505111545 13 313 11.3 20.9 0.00 0.00 0.00 69 1011.5
20260505111323 13 293 12.9 20.9 0.00 0.00 0.00 68 1011.5
20260505110545 13 309 11.3 22.5 0.00 0.00 0.00 71 1011.5